contact:dominique.lefevre@mio.osupytheas.fr, maurice.libes@osupytheas.fr, didier.mallarino@osupytheas.fr
Project:EMSO http://www.emso-fr.org/EMSO-France
Depth: 2436.0 m
Title:EMSO Ligure Ouest : Data MII capteur AQUADOPP
Date,Latitude,Longitude,X_East,Y_North,Z_Up,Amplitude_X,Amplitude_Y,Amplitude_Z,Batterie,SoundSpeed,Heading,Pitch,Roll,Pressure,TIS,Speed,Direction
, degrees North, degrees East, m.s-1, m.s-1,m.s-1, 1, 1, 1, Volt, m.s-1, degree, degree, degree, dbar, degree_C, m.s-1, degree
2020-07-15T00:04:03,42.805,6.029,0.02,0.001,-0.022,103.0,117.0,101.0,13.3,1505.2,326.3,-0.7,1.8,2470.421,13.3,0.02,87.1
2020-07-15T00:07:03,42.805,6.029,0.012,0.001,-0.024,103.0,116.0,101.0,13.3,1505.3,323.5,-0.7,1.8,2470.402,13.31,0.012,85.2
2020-07-15T00:10:03,42.805,6.029,0.045,-0.002,-0.005,104.0,116.0,99.0,13.4,1505.3,324.6,-0.7,1.8,2470.411,13.31,0.045,92.5
2020-07-15T00:13:03,42.805,6.029,-0.007,-0.018,-0.023,104.0,116.0,101.0,13.4,1505.3,325.6,-0.7,1.8,2470.421,13.32,0.019,201.2
2020-07-15T00:16:03,42.805,6.029,0.019,0.009,-0.038,103.0,116.0,100.0,13.3,1505.3,327.9,-0.7,1.9,2470.435,13.32,0.021,64.7
2020-07-15T00:19:03,42.805,6.029,0.005,0.016,-0.033,104.0,118.0,100.0,13.4,1505.3,323.8,-0.7,1.8,2470.397,13.32,0.016,17.4
2020-07-15T00:22:03,42.805,6.029,0.018,0.006,0.0,104.0,117.0,100.0,13.3,1505.3,322.5,-0.7,1.9,2470.363,13.32,0.018,71.6
2020-07-15T00:25:03,42.805,6.029,0.012,0.013,-0.011,103.0,117.0,100.0,13.4,1505.3,326.4,-0.7,1.8,2470.41,13.32,0.017,42.7
2020-07-15T00:28:03,42.805,6.029,0.01,0.012,-0.002,103.0,118.0,101.0,13.4,1505.3,326.3,-0.7,1.8,2470.388,13.32,0.015,39.8
2020-07-15T00:31:03,42.805,6.029,0.017,-0.001,0.011,103.0,116.0,101.0,13.4,1505.3,326.4,-0.7,1.8,2470.371,13.32,0.017,93.4
2020-07-15T00:34:03,42.805,6.029,-0.001,0.0,-0.007,103.0,119.0,100.0,13.4,1505.3,327.2,-0.7,1.8,2470.391,13.32,0.001,270.0
2020-07-15T00:37:03,42.805,6.029,-0.001,0.001,-0.039,103.0,119.0,101.0,13.4,1505.3,324.0,-0.7,1.8,2470.375,13.32,0.001,315.0
2020-07-15T00:40:03,42.805,6.029,0.044,-0.017,-0.033,103.0,115.0,101.0,13.4,1505.3,328.4,-0.7,1.9,2470.385,13.32,0.047,111.1
2020-07-15T00:43:03,42.805,6.029,0.007,0.002,-0.045,103.0,116.0,101.0,13.3,1505.3,325.9,-0.7,1.8,2470.406,13.32,0.007,74.1
2020-07-15T00:46:03,42.805,6.029,0.014,0.011,-0.022,103.0,115.0,101.0,13.4,1505.3,325.7,-0.7,1.8,2470.371,13.32,0.017,51.8
2020-07-15T00:49:03,42.805,6.029,0.046,0.002,-0.025,103.0,117.0,101.0,13.4,1505.3,325.0,-0.7,1.8,2470.384,13.32,0.046,87.5
2020-07-15T00:52:03,42.805,6.029,0.012,0.0,-0.017,103.0,114.0,101.0,13.4,1505.3,326.1,-0.7,1.8,2470.397,13.32,0.012,90.0
2020-07-15T00:55:03,42.805,6.029,0.032,0.002,-0.028,104.0,114.0,101.0,13.4,1505.3,327.8,-0.7,1.8,2470.401,13.32,0.032,86.4
2020-07-15T00:58:03,42.805,6.029,0.04,0.007,0.015,103.0,114.0,100.0,13.4,1505.3,326.5,-0.7,1.8,2470.325,13.32,0.04,80.1
2020-07-15T01:04:03,42.805,6.029,0.004,0.046,0.013,104.0,116.0,101.0,13.3,1505.2,328.5,-0.7,1.8,2470.461,13.3,0.046,5.0
2020-07-15T01:07:03,42.805,6.029,0.022,0.009,-0.018,104.0,114.0,100.0,13.4,1505.3,325.7,-0.7,1.8,2470.45,13.31,0.023,67.8
2020-07-15T01:10:03,42.805,6.029,0.048,-0.001,0.006,103.0,114.0,101.0,13.4,1505.3,325.7,-0.7,1.8,2470.392,13.31,0.048,91.2
2020-07-15T01:13:03,42.805,6.029,-0.014,-0.002,-0.049,103.0,117.0,101.0,13.4,1505.3,323.7,-0.7,1.9,2470.433,13.32,0.014,261.9
2020-07-15T01:16:03,42.805,6.029,0.041,-0.016,-0.005,103.0,112.0,101.0,13.4,1505.3,325.2,-0.7,1.8,2470.397,13.32,0.044,111.3
2020-07-15T01:19:03,42.805,6.029,0.03,-0.014,-0.02,102.0,114.0,101.0,13.4,1505.3,327.6,-0.7,1.9,2470.431,13.32,0.033,115.0
2020-07-15T01:22:03,42.805,6.029,0.023,0.01,0.024,105.0,114.0,100.0,13.4,1505.3,324.9,-0.7,1.9,2470.39,13.32,0.025,66.5
2020-07-15T01:25:03,42.805,6.029,0.041,0.001,-0.006,102.0,114.0,100.0,13.4,1505.3,325.6,-0.7,1.8,2470.423,13.32,0.041,88.6
2020-07-15T01:28:03,42.805,6.029,0.023,0.014,0.007,102.0,115.0,101.0,13.4,1505.3,324.6,-0.7,1.8,2470.395,13.32,0.026,58.7
2020-07-15T01:31:03,42.805,6.029,0.022,0.01,-0.015,103.0,113.0,100.0,13.4,1505.3,325.7,-0.7,1.8,2470.405,13.32,0.024,65.6
2020-07-15T01:34:03,42.805,6.029,0.004,-0.003,-0.002,102.0,115.0,101.0,13.4,1505.3,326.8,-0.7,1.8,2470.405,13.32,0.005,126.9
2020-07-15T01:37:03,42.805,6.029,0.012,0.005,-0.002,103.0,115.0,101.0,13.4,1505.3,323.6,-0.7,1.9,2470.427,13.32,0.013,67.4
2020-07-15T01:40:03,42.805,6.029,0.037,-0.004,-0.007,102.0,115.0,101.0,13.4,1505.3,325.6,-0.7,1.8,2470.374,13.32,0.037,96.2
2020-07-15T01:43:03,42.805,6.029,0.032,0.006,-0.014,103.0,115.0,101.0,13.4,1505.3,327.5,-0.7,1.8,2470.408,13.32,0.032,79.4
2020-07-15T01:46:03,42.805,6.029,0.018,0.004,-0.02,103.0,115.0,101.0,13.3,1505.3,324.3,-0.7,1.8,2470.414,13.32,0.018,77.5
2020-07-15T01:49:03,42.805,6.029,0.016,0.021,0.022,104.0,113.0,100.0,13.3,1505.3,327.2,-0.7,1.8,2470.399,13.32,0.026,37.3
2020-07-15T01:52:03,42.805,6.029,0.038,0.006,0.002,102.0,111.0,100.0,13.4,1505.3,323.2,-0.7,1.8,2470.423,13.32,0.038,81.0
2020-07-15T01:58:03,42.805,6.029,0.046,-0.005,0.038,104.0,112.0,101.0,13.4,1505.2,326.4,-0.7,1.8,2470.441,13.3,0.046,96.2
2020-07-15T02:04:03,42.805,6.029,0.02,-0.017,-0.028,104.0,115.0,100.0,13.3,1505.2,325.3,-0.7,1.8,2470.46,13.29,0.026,130.4
2020-07-15T02:07:03,42.805,6.029,0.018,-0.002,-0.011,102.0,114.0,101.0,13.4,1505.3,325.5,-0.7,1.8,2470.443,13.31,0.018,96.3
2020-07-15T02:10:03,42.805,6.029,0.036,0.004,0.01,103.0,112.0,101.0,13.4,1505.3,327.4,-0.7,1.8,2470.439,13.31,0.036,83.7
2020-07-15T02:13:03,42.805,6.029,0.021,0.011,-0.027,103.0,116.0,102.0,13.4,1505.3,326.2,-0.7,1.8,2470.417,13.32,0.023,62.4
2020-07-15T02:16:03,42.805,6.029,0.032,-0.004,-0.014,103.0,114.0,101.0,13.4,1505.3,328.0,-0.7,1.9,2470.445,13.32,0.032,97.1
2020-07-15T02:19:03,42.805,6.029,0.016,0.009,-0.021,103.0,113.0,101.0,13.3,1505.3,325.5,-0.7,1.8,2470.398,13.32,0.018,60.6
2020-07-15T02:22:03,42.805,6.029,0.051,-0.022,-0.015,103.0,111.0,101.0,13.4,1505.3,326.8,-0.7,1.8,2470.4,13.32,0.055,113.3
2020-07-15T02:25:03,42.805,6.029,0.039,-0.017,-0.019,101.0,114.0,101.0,13.4,1505.3,326.1,-0.7,1.8,2470.436,13.32,0.042,113.5
2020-07-15T02:28:03,42.805,6.029,0.014,-0.005,-0.046,104.0,110.0,101.0,13.3,1505.3,323.3,-0.7,1.8,2470.41,13.32,0.014,109.6
2020-07-15T02:31:03,42.805,6.029,0.032,-0.009,-0.005,103.0,113.0,101.0,13.4,1505.3,324.8,-0.7,1.8,2470.403,13.32,0.033,105.7
2020-07-15T02:34:03,42.805,6.029,0.042,0.007,0.015,103.0,111.0,101.0,13.3,1505.3,327.8,-0.7,1.8,2470.406,13.32,0.042,80.5
2020-07-15T02:37:03,42.805,6.029,0.041,-0.008,-0.011,103.0,111.0,101.0,13.3,1505.3,323.8,-0.7,1.9,2470.379,13.32,0.041,101.0
2020-07-15T02:40:03,42.805,6.029,0.013,0.008,-0.019,104.0,111.0,100.0,13.3,1505.3,324.2,-0.7,1.8,2470.41,13.32,0.015,58.4
2020-07-15T02:43:03,42.805,6.029,0.015,0.008,-0.018,102.0,113.0,102.0,13.4,1505.3,323.7,-0.7,1.8,2470.361,13.32,0.017,61.9
2020-07-15T02:46:03,42.805,6.029,0.03,-0.004,-0.006,104.0,110.0,101.0,13.4,1505.3,323.9,-0.7,1.8,2470.409,13.32,0.03,97.6
2020-07-15T02:49:03,42.805,6.029,0.005,-0.006,-0.027,103.0,112.0,102.0,13.4,1505.3,327.2,-0.7,1.9,2470.401,13.32,0.007,140.2
2020-07-15T02:52:03,42.805,6.029,0.044,0.01,-0.009,104.0,112.0,101.0,13.3,1505.3,324.2,-0.7,1.8,2470.387,13.32,0.045,77.2
2020-07-15T02:55:03,42.805,6.029,0.028,-0.005,0.002,102.0,113.0,101.0,13.4,1505.3,328.1,-0.7,1.8,2470.411,13.32,0.028,100.1
2020-07-15T02:58:03,42.805,6.029,0.035,0.006,-0.023,103.0,114.0,101.0,13.4,1505.3,326.6,-0.7,1.8,2470.416,13.32,0.035,80.3
2020-07-15T03:04:03,42.805,6.029,0.043,-0.001,-0.011,104.0,110.0,101.0,13.3,1505.2,325.1,-0.8,1.8,2470.405,13.3,0.043,91.3
2020-07-15T03:07:03,42.805,6.029,0.03,0.009,0.036,103.0,112.0,101.0,13.4,1505.3,325.7,-0.7,1.8,2470.426,13.31,0.031,73.3
2020-07-15T03:10:03,42.805,6.029,0.031,-0.032,-0.036,101.0,112.0,102.0,13.3,1505.3,326.2,-0.7,1.8,2470.463,13.31,0.044,135.9
2020-07-15T03:13:03,42.805,6.029,0.019,-0.003,-0.003,103.0,113.0,101.0,13.3,1505.3,324.9,-0.7,1.8,2470.448,13.32,0.019,99.0
2020-07-15T03:16:03,42.805,6.029,0.013,-0.008,-0.027,104.0,112.0,100.0,13.4,1505.3,322.6,-0.7,1.8,2470.411,13.32,0.015,121.6
2020-07-15T03:19:03,42.805,6.029,0.025,-0.007,-0.036,104.0,112.0,101.0,13.3,1505.3,328.2,-0.7,1.9,2470.442,13.32,0.025,105.6
2020-07-15T03:22:03,42.805,6.029,0.025,0.01,-0.035,103.0,114.0,101.0,13.4,1505.3,326.7,-0.7,1.8,2470.426,13.32,0.026,68.2
2020-07-15T03:25:03,42.805,6.029,0.035,-0.009,-0.043,103.0,114.0,101.0,13.3,1505.3,327.7,-0.7,1.8,2470.431,13.32,0.036,104.4
2020-07-15T03:28:03,42.805,6.029,0.024,-0.001,0.002,103.0,112.0,101.0,13.3,1505.3,327.2,-0.7,1.8,2470.359,13.32,0.024,92.4
2020-07-15T03:31:03,42.805,6.029,0.022,-0.015,-0.039,104.0,112.0,100.0,13.4,1505.3,326.0,-0.7,1.8,2470.411,13.32,0.026,124.3
2020-07-15T03:34:03,42.805,6.029,0.022,-0.009,-0.044,102.0,111.0,101.0,13.4,1505.3,325.9,-0.7,1.8,2470.409,13.32,0.023,112.2
2020-07-15T03:37:03,42.805,6.029,0.014,-0.011,-0.042,103.0,116.0,101.0,13.3,1505.3,326.6,-0.7,1.8,2470.396,13.32,0.017,128.2
2020-07-15T03:40:03,42.805,6.029,0.014,0.012,-0.009,103.0,112.0,100.0,13.4,1505.3,324.9,-0.7,1.8,2470.392,13.32,0.018,49.4
2020-07-15T03:43:03,42.805,6.029,0.022,0.003,0.003,103.0,113.0,101.0,13.3,1505.3,326.0,-0.7,1.8,2470.421,13.32,0.022,82.2
2020-07-15T03:46:03,42.805,6.029,0.053,0.004,-0.011,103.0,114.0,101.0,13.3,1505.3,323.7,-0.7,1.8,2470.386,13.32,0.053,85.7
2020-07-15T03:49:03,42.805,6.029,0.005,0.011,0.004,103.0,111.0,101.0,13.4,1505.3,323.3,-0.7,1.8,2470.389,13.32,0.012,24.4
2020-07-15T03:52:03,42.805,6.029,0.046,-0.015,-0.006,103.0,111.0,101.0,13.3,1505.3,327.3,-0.7,1.8,2470.404,13.32,0.048,108.1
2020-07-15T03:55:03,42.805,6.029,0.032,0.003,-0.003,103.0,111.0,101.0,13.4,1505.3,324.3,-0.7,1.8,2470.418,13.32,0.032,84.6
2020-07-15T03:58:03,42.805,6.029,0.031,-0.009,-0.04,102.0,112.0,100.0,13.4,1505.3,324.2,-0.7,1.9,2470.418,13.32,0.032,106.2
2020-07-15T04:04:03,42.805,6.029,0.037,-0.001,-0.002,104.0,111.0,101.0,13.4,1505.2,327.8,-0.7,1.8,2470.437,13.3,0.037,91.5
2020-07-15T04:07:03,42.805,6.029,0.02,0.002,-0.007,103.0,111.0,101.0,13.4,1505.3,326.6,-0.7,1.8,2470.427,13.31,0.02,84.3
2020-07-15T04:10:03,42.805,6.029,0.028,-0.01,-0.005,103.0,113.0,100.0,13.3,1505.3,325.4,-0.7,1.9,2470.428,13.31,0.029,109.6
2020-07-15T04:13:03,42.805,6.029,0.038,0.006,-0.002,103.0,112.0,100.0,13.4,1505.3,324.7,-0.7,1.9,2470.4,13.32,0.038,81.0
2020-07-15T04:16:03,42.805,6.029,0.013,0.003,-0.039,102.0,115.0,101.0,13.3,1505.3,324.5,-0.7,1.8,2470.409,13.32,0.013,77.0
2020-07-15T04:19:03,42.805,6.029,0.023,-0.009,0.0,103.0,112.0,101.0,13.4,1505.3,328.2,-0.7,1.9,2470.372,13.32,0.024,111.4
2020-07-15T04:22:03,42.805,6.029,0.015,-0.007,-0.018,103.0,112.0,101.0,13.3,1505.3,325.1,-0.7,1.8,2470.411,13.32,0.016,115.0
2020-07-15T04:25:03,42.805,6.029,0.038,-0.005,-0.009,103.0,112.0,102.0,13.4,1505.3,324.8,-0.7,1.8,2470.385,13.32,0.038,97.5
2020-07-15T04:28:03,42.805,6.029,0.028,-0.007,-0.01,103.0,112.0,101.0,13.3,1505.3,323.0,-0.7,1.8,2470.421,13.32,0.028,104.0
2020-07-15T04:31:03,42.805,6.029,0.046,-0.007,0.0,103.0,109.0,101.0,13.4,1505.3,322.9,-0.7,1.8,2470.357,13.32,0.046,98.7
2020-07-15T04:34:03,42.805,6.029,0.032,-0.009,-0.027,103.0,115.0,101.0,13.3,1505.3,322.8,-0.7,1.8,2470.375,13.32,0.033,105.7
2020-07-15T04:37:03,42.805,6.029,0.025,-0.006,0.003,103.0,115.0,100.0,13.4,1505.3,323.7,-0.7,1.8,2470.43,13.32,0.025,103.5
2020-07-15T04:40:03,42.805,6.029,0.047,-0.004,0.011,103.0,113.0,101.0,13.4,1505.3,323.2,-0.7,1.9,2470.404,13.32,0.047,94.9
2020-07-15T04:43:03,42.805,6.029,0.008,0.004,-0.031,103.0,110.0,100.0,13.4,1505.3,325.5,-0.7,1.8,2470.404,13.32,0.008,63.4
2020-07-15T04:46:03,42.805,6.029,0.03,0.007,0.011,103.0,113.0,101.0,13.4,1505.3,327.1,-0.7,1.8,2470.387,13.32,0.03,76.9
2020-07-15T04:49:03,42.805,6.029,0.027,0.001,-0.005,103.0,113.0,101.0,13.4,1505.3,327.3,-0.7,1.8,2470.395,13.32,0.027,87.9
2020-07-15T04:52:03,42.805,6.029,0.031,0.016,-0.023,104.0,116.0,101.0,13.4,1505.3,327.1,-0.7,1.8,2470.353,13.32,0.034,62.7
2020-07-15T04:55:03,42.805,6.029,0.017,0.017,-0.017,103.0,113.0,100.0,13.4,1505.3,326.4,-0.7,1.9,2470.421,13.32,0.024,45.0
2020-07-15T04:58:03,42.805,6.029,0.028,0.0,-0.022,103.0,113.0,101.0,13.3,1505.3,325.3,-0.7,1.9,2470.376,13.32,0.028,90.0
2020-07-15T05:04:03,42.805,6.029,0.038,-0.003,-0.033,104.0,113.0,101.0,13.4,1505.2,326.5,-0.8,1.8,2470.421,13.3,0.038,94.5
2020-07-15T05:07:03,42.805,6.029,0.025,-0.028,-0.007,103.0,112.0,101.0,13.3,1505.3,323.5,-0.8,1.8,2470.361,13.31,0.037,138.2
2020-07-15T05:10:03,42.805,6.029,0.041,0.01,-0.002,103.0,111.0,101.0,13.4,1505.3,327.1,-0.7,1.8,2470.438,13.31,0.042,76.3
2020-07-15T05:13:03,42.805,6.029,0.045,0.004,0.026,105.0,112.0,101.0,13.4,1505.3,324.6,-0.7,1.8,2470.422,13.32,0.045,84.9
2020-07-15T05:16:03,42.805,6.029,0.03,-0.008,-0.012,103.0,109.0,101.0,13.4,1505.3,326.4,-0.7,1.8,2470.397,13.32,0.031,104.9
2020-07-15T05:19:03,42.805,6.029,0.002,-0.015,-0.012,103.0,113.0,100.0,13.4,1505.3,323.9,-0.7,1.8,2470.387,13.32,0.015,172.4
2020-07-15T05:22:03,42.805,6.029,0.03,0.016,-0.001,103.0,112.0,101.0,13.3,1505.3,328.0,-0.7,1.8,2470.4,13.32,0.034,61.9
2020-07-15T05:25:03,42.805,6.029,0.037,0.0,0.011,103.0,109.0,101.0,13.4,1505.3,325.7,-0.7,1.8,2470.396,13.32,0.037,90.0
2020-07-15T05:28:03,42.805,6.029,-0.005,0.02,-0.031,104.0,112.0,101.0,13.3,1505.3,326.9,-0.7,1.8,2470.369,13.32,0.02,346.0
2020-07-15T05:31:03,42.805,6.029,0.03,0.0,0.0,104.0,109.0,101.0,13.4,1505.3,324.9,-0.7,1.9,2470.404,13.32,0.03,90.0
2020-07-15T05:34:03,42.805,6.029,0.026,0.002,-0.003,103.0,114.0,101.0,13.4,1505.3,323.3,-0.7,1.8,2470.392,13.32,0.026,85.6
2020-07-15T05:37:03,42.805,6.029,0.029,-0.001,-0.012,104.0,112.0,101.0,13.3,1505.3,326.0,-0.7,1.8,2470.371,13.32,0.029,92.0
2020-07-15T05:40:03,42.805,6.029,0.034,-0.014,0.012,102.0,110.0,101.0,13.3,1505.3,325.2,-0.7,1.9,2470.383,13.32,0.036,112.4
2020-07-15T05:43:03,42.805,6.029,-0.007,-0.013,-0.022,104.0,111.0,101.0,13.4,1505.3,325.7,-0.7,1.8,2470.387,13.32,0.014,208.3
2020-07-15T05:46:03,42.805,6.029,0.025,0.0,0.003,105.0,113.0,100.0,13.4,1505.3,322.6,-0.7,1.8,2470.357,13.32,0.025,90.0
2020-07-15T05:49:03,42.805,6.029,0.013,-0.003,-0.004,104.0,111.0,101.0,13.3,1505.3,326.8,-0.7,1.8,2470.354,13.32,0.013,103.0
2020-07-15T05:52:03,42.805,6.029,0.025,0.012,-0.002,103.0,113.0,102.0,13.3,1505.3,324.8,-0.7,1.9,2470.381,13.32,0.027,64.4
2020-07-15T05:55:03,42.805,6.029,0.034,-0.007,-0.005,103.0,113.0,102.0,13.4,1505.3,323.1,-0.7,1.8,2470.357,13.32,0.034,101.6
2020-07-15T05:58:03,42.805,6.029,0.013,0.007,0.0,102.0,114.0,101.0,13.4,1505.3,327.8,-0.7,1.8,2470.373,13.32,0.014,61.7
2020-07-15T06:04:03,42.805,6.029,0.029,0.014,0.002,103.0,114.0,101.0,13.4,1505.2,327.2,-0.7,1.8,2470.381,13.3,0.032,64.2
2020-07-15T06:07:03,42.805,6.029,0.033,0.0,-0.004,104.0,111.0,100.0,13.4,1505.3,324.8,-0.7,1.8,2470.445,13.31,0.033,90.0
2020-07-15T06:10:03,42.805,6.029,0.011,0.004,-0.029,103.0,112.0,100.0,13.4,1505.3,327.9,-0.7,1.8,2470.418,13.32,0.011,70.0
2020-07-15T06:13:03,42.805,6.029,0.024,-0.002,-0.029,103.0,112.0,102.0,13.4,1505.3,326.4,-0.7,1.8,2470.392,13.32,0.024,94.8
2020-07-15T06:16:03,42.805,6.029,0.026,0.003,-0.009,103.0,111.0,101.0,13.4,1505.3,328.3,-0.7,1.8,2470.404,13.32,0.026,83.4
2020-07-15T06:19:03,42.805,6.029,0.012,0.003,-0.021,103.0,112.0,101.0,13.4,1505.3,325.6,-0.7,1.8,2470.369,13.32,0.012,76.0
2020-07-15T06:22:03,42.805,6.029,-0.001,0.017,-0.018,104.0,114.0,102.0,13.4,1505.3,323.8,-0.7,1.8,2470.373,13.32,0.017,356.6
2020-07-15T06:25:03,42.805,6.029,0.034,0.009,0.0,103.0,112.0,101.0,13.4,1505.3,325.3,-0.7,1.8,2470.405,13.32,0.035,75.2
2020-07-15T06:28:03,42.805,6.029,0.024,0.018,0.024,103.0,115.0,101.0,13.4,1505.3,324.2,-0.7,1.8,2470.377,13.32,0.03,53.1
2020-07-15T06:31:03,42.805,6.029,0.041,-0.013,-0.018,103.0,113.0,101.0,13.4,1505.3,326.9,-0.7,1.8,2470.391,13.32,0.043,107.6
2020-07-15T06:34:03,42.805,6.029,0.028,0.003,0.009,104.0,112.0,100.0,13.3,1505.3,328.0,-0.7,1.9,2470.398,13.32,0.028,83.9
2020-07-15T06:37:03,42.805,6.029,0.016,0.008,0.003,103.0,111.0,100.0,13.4,1505.3,323.3,-0.7,1.9,2470.365,13.32,0.017,63.4
2020-07-15T06:40:03,42.805,6.029,0.036,-0.005,-0.006,104.0,113.0,101.0,13.4,1505.3,326.2,-0.7,1.8,2470.382,13.32,0.036,97.9
2020-07-15T06:43:03,42.805,6.029,0.043,-0.011,-0.004,104.0,111.0,101.0,13.3,1505.3,326.3,-0.7,1.8,2470.359,13.32,0.044,104.3
2020-07-15T06:46:03,42.805,6.029,0.021,-0.001,-0.003,104.0,111.0,101.0,13.4,1505.3,326.1,-0.7,1.9,2470.323,13.32,0.021,92.7
2020-07-15T06:49:03,42.805,6.029,0.008,0.011,-0.002,104.0,114.0,101.0,13.4,1505.3,326.2,-0.7,1.8,2470.333,13.32,0.013,36.0
2020-07-15T06:52:03,42.805,6.029,0.033,-0.012,0.004,105.0,113.0,101.0,13.4,1505.3,326.7,-0.7,1.9,2470.342,13.32,0.035,110.0
2020-07-15T06:55:03,42.805,6.029,-0.004,-0.013,-0.007,102.0,111.0,102.0,13.3,1505.3,326.4,-0.7,1.8,2470.387,13.32,0.013,197.1
2020-07-15T06:58:03,42.805,6.029,0.058,0.0,-0.005,103.0,112.0,101.0,13.4,1505.3,325.0,-0.7,1.8,2470.319,13.32,0.057,90.0
2020-07-15T07:04:03,42.805,6.029,0.046,0.002,-0.011,104.0,110.0,101.0,13.4,1505.2,323.5,-0.7,1.8,2470.377,13.3,0.046,87.5
2020-07-15T07:07:03,42.805,6.029,0.034,-0.002,-0.01,104.0,114.0,101.0,13.4,1505.3,328.4,-0.7,1.8,2470.357,13.31,0.034,93.4
2020-07-15T07:10:03,42.805,6.029,0.042,0.0,0.008,103.0,112.0,101.0,13.4,1505.3,324.9,-0.7,1.8,2470.385,13.31,0.042,90.0
2020-07-15T07:13:03,42.805,6.029,0.019,0.002,0.002,102.0,114.0,102.0,13.3,1505.3,323.8,-0.7,1.8,2470.365,13.32,0.019,84.0
2020-07-15T07:16:03,42.805,6.029,0.017,0.013,-0.021,104.0,113.0,101.0,13.3,1505.3,327.2,-0.7,1.9,2470.355,13.32,0.021,52.6
2020-07-15T07:19:03,42.805,6.029,0.021,0.002,-0.009,103.0,112.0,100.0,13.4,1505.3,325.1,-0.7,1.9,2470.346,13.32,0.021,84.6
2020-07-15T07:22:03,42.805,6.029,0.023,0.002,-0.001,102.0,113.0,101.0,13.3,1505.3,326.1,-0.7,1.8,2470.317,13.32,0.023,85.0
2020-07-15T07:25:03,42.805,6.029,0.036,0.02,0.011,103.0,115.0,102.0,13.4,1505.3,325.3,-0.7,1.8,2470.337,13.32,0.041,60.9
2020-07-15T07:28:03,42.805,6.029,0.028,0.017,0.021,103.0,112.0,102.0,13.3,1505.3,323.7,-0.7,1.8,2470.288,13.32,0.032,58.7
2020-07-15T07:31:03,42.805,6.029,0.019,0.0,-0.032,103.0,111.0,101.0,13.4,1505.3,327.8,-0.7,1.9,2470.336,13.32,0.019,90.0
2020-07-15T07:34:03,42.805,6.029,0.046,-0.002,0.013,102.0,111.0,101.0,13.3,1505.3,324.8,-0.7,1.8,2470.356,13.32,0.046,92.5
2020-07-15T07:37:03,42.805,6.029,0.009,0.0,-0.001,104.0,112.0,101.0,13.4,1505.3,327.1,-0.8,1.8,2470.349,13.32,0.009,90.0
2020-07-15T07:40:03,42.805,6.029,0.066,0.002,0.008,104.0,111.0,100.0,13.3,1505.3,325.3,-0.7,1.8,2470.334,13.32,0.066,88.3
2020-07-15T07:43:03,42.805,6.029,0.009,0.001,0.009,104.0,112.0,101.0,13.3,1505.3,328.1,-0.7,1.8,2470.354,13.32,0.009,83.7
2020-07-15T07:46:03,42.805,6.029,0.033,0.008,0.026,103.0,112.0,101.0,13.4,1505.3,324.5,-0.7,1.9,2470.355,13.32,0.033,76.4
2020-07-15T07:49:03,42.805,6.029,0.013,0.023,-0.034,102.0,114.0,102.0,13.4,1505.3,323.8,-0.7,1.8,2470.366,13.32,0.026,29.5
2020-07-15T07:52:03,42.805,6.029,0.028,0.007,-0.003,104.0,113.0,101.0,13.4,1505.3,324.0,-0.7,1.8,2470.299,13.32,0.028,76.0
2020-07-15T07:55:03,42.805,6.029,0.026,0.008,0.017,104.0,114.0,101.0,13.3,1505.3,323.8,-0.7,1.8,2470.333,13.32,0.027,72.9
2020-07-15T07:58:03,42.805,6.029,0.017,0.005,-0.018,103.0,116.0,101.0,13.3,1505.3,327.0,-0.7,1.8,2470.339,13.32,0.017,73.6
2020-07-15T08:04:03,42.805,6.029,0.016,-0.011,-0.002,103.0,113.0,101.0,13.4,1505.2,327.8,-0.7,1.8,2470.347,13.3,0.019,124.5
2020-07-15T08:07:03,42.805,6.029,0.02,0.006,0.0,104.0,113.0,100.0,13.4,1505.3,326.7,-0.7,1.8,2470.367,13.31,0.02,73.3
2020-07-15T08:10:03,42.805,6.029,0.026,0.001,-0.009,103.0,115.0,101.0,13.3,1505.3,326.8,-0.7,1.8,2470.358,13.32,0.026,87.8
2020-07-15T08:13:03,42.805,6.029,0.002,-0.002,0.002,103.0,115.0,101.0,13.4,1505.3,326.7,-0.7,1.8,2470.329,13.32,0.002,135.0
2020-07-15T08:16:03,42.805,6.029,0.015,0.002,-0.015,104.0,114.0,101.0,13.4,1505.3,326.4,-0.7,1.9,2470.348,13.32,0.015,82.4
2020-07-15T08:19:03,42.805,6.029,0.005,0.008,-0.015,101.0,114.0,102.0,13.4,1505.3,327.0,-0.7,1.8,2470.345,13.32,0.009,32.0
2020-07-15T08:22:03,42.805,6.029,0.009,0.014,0.0,104.0,113.0,101.0,13.4,1505.3,326.4,-0.7,1.8,2470.349,13.32,0.016,32.7
2020-07-15T08:25:03,42.805,6.029,0.019,-0.002,-0.025,103.0,114.0,100.0,13.4,1505.3,323.3,-0.7,1.8,2470.321,13.32,0.019,96.0
2020-07-15T08:28:03,42.805,6.029,0.029,-0.009,0.015,103.0,113.0,102.0,13.4,1505.3,326.6,-0.7,1.8,2470.273,13.32,0.03,107.2
2020-07-15T08:31:03,42.805,6.029,0.028,-0.011,-0.023,103.0,116.0,101.0,13.3,1505.3,325.9,-0.7,1.8,2470.319,13.32,0.03,111.4
2020-07-15T08:34:03,42.805,6.029,0.028,0.005,0.018,102.0,115.0,101.0,13.3,1505.3,325.2,-0.7,1.8,2470.315,13.32,0.028,79.9
2020-07-15T08:37:03,42.805,6.029,0.006,0.01,0.0,101.0,114.0,102.0,13.4,1505.3,325.0,-0.7,1.9,2470.319,13.32,0.011,31.0
2020-07-15T08:40:03,42.805,6.029,0.007,0.004,-0.011,104.0,117.0,100.0,13.4,1505.3,324.4,-0.7,1.8,2470.306,13.32,0.008,60.3
2020-07-15T08:43:03,42.805,6.029,0.024,0.005,-0.002,103.0,114.0,102.0,13.4,1505.3,327.8,-0.7,1.9,2470.334,13.32,0.024,78.2
2020-07-15T08:46:03,42.805,6.029,0.031,0.011,-0.003,102.0,117.0,101.0,13.4,1505.3,324.1,-0.7,1.8,2470.272,13.32,0.032,70.5
2020-07-15T08:49:03,42.805,6.029,0.024,0.002,-0.02,102.0,116.0,100.0,13.4,1505.3,322.9,-0.7,1.8,2470.277,13.32,0.024,85.2
2020-07-15T08:52:03,42.805,6.029,0.022,-0.011,-0.014,102.0,114.0,102.0,13.4,1505.3,328.0,-0.7,1.8,2470.279,13.32,0.024,116.6
2020-07-15T08:55:03,42.805,6.029,0.025,0.006,-0.005,103.0,115.0,101.0,13.4,1505.3,326.0,-0.7,1.8,2470.317,13.32,0.025,76.5
2020-07-15T08:58:03,42.805,6.029,0.015,0.002,0.004,103.0,112.0,101.0,13.4,1505.3,325.8,-0.7,1.8,2470.325,13.32,0.015,82.4
2020-07-15T09:04:03,42.805,6.029,0.014,0.001,0.038,103.0,114.0,101.0,13.4,1505.2,323.4,-0.7,1.8,2470.326,13.3,0.014,85.9
2020-07-15T09:07:03,42.805,6.029,0.016,0.005,-0.025,103.0,118.0,101.0,13.4,1505.3,328.0,-0.8,1.8,2470.364,13.31,0.016,72.6
2020-07-15T09:10:03,42.805,6.029,0.016,0.0,-0.008,103.0,116.0,100.0,13.4,1505.3,324.1,-0.7,1.8,2470.31,13.31,0.016,90.0
2020-07-15T09:13:03,42.805,6.029,0.016,0.005,0.013,103.0,116.0,100.0,13.3,1505.3,325.6,-0.7,1.8,2470.311,13.32,0.016,72.6
2020-07-15T09:16:03,42.805,6.029,0.013,0.022,0.016,102.0,116.0,101.0,13.4,1505.3,328.1,-0.7,1.8,2470.336,13.32,0.025,30.6
2020-07-15T09:19:03,42.805,6.029,0.013,0.01,0.022,103.0,115.0,101.0,13.4,1505.3,328.1,-0.7,1.9,2470.301,13.32,0.016,52.4
2020-07-15T09:22:03,42.805,6.029,0.01,0.019,-0.008,102.0,115.0,100.0,13.4,1505.3,326.5,-0.7,1.8,2470.357,13.32,0.021,27.8
2020-07-15T09:25:03,42.805,6.029,0.026,-0.008,-0.005,103.0,119.0,99.0,13.4,1505.3,327.4,-0.7,1.8,2470.29,13.32,0.027,107.1
2020-07-15T09:28:03,42.805,6.029,0.027,0.005,-0.002,103.0,117.0,101.0,13.4,1505.3,324.2,-0.7,1.9,2470.308,13.32,0.027,79.5
2020-07-15T09:31:03,42.805,6.029,0.014,0.007,-0.019,104.0,116.0,100.0,13.4,1505.3,325.9,-0.7,1.8,2470.356,13.32,0.015,63.4
2020-07-15T09:34:03,42.805,6.029,0.01,-0.006,-0.007,103.0,116.0,101.0,13.4,1505.3,325.3,-0.7,1.8,2470.296,13.32,0.011,121.0
2020-07-15T09:37:03,42.805,6.029,-0.004,0.006,-0.023,103.0,116.0,101.0,13.4,1505.3,323.9,-0.7,1.8,2470.309,13.32,0.007,326.3
2020-07-15T09:40:03,42.805,6.029,0.03,0.017,0.01,103.0,114.0,100.0,13.4,1505.3,324.7,-0.7,1.9,2470.341,13.32,0.034,60.5
2020-07-15T09:43:03,42.805,6.029,0.026,0.007,0.001,104.0,116.0,100.0,13.4,1505.3,324.0,-0.7,1.8,2470.278,13.32,0.026,74.9
2020-07-15T09:46:03,42.805,6.029,0.017,0.005,-0.004,103.0,112.0,102.0,13.4,1505.3,328.2,-0.7,1.9,2470.268,13.32,0.017,73.6
2020-07-15T09:49:03,42.805,6.029,-0.012,0.018,0.002,104.0,116.0,102.0,13.3,1505.3,324.4,-0.7,1.8,2470.266,13.32,0.021,326.3
2020-07-15T09:52:03,42.805,6.029,0.026,-0.005,-0.055,102.0,118.0,102.0,13.4,1505.3,324.5,-0.7,1.9,2470.296,13.32,0.026,100.9
2020-07-15T09:55:03,42.805,6.029,0.025,0.012,0.032,103.0,117.0,100.0,13.4,1505.3,324.6,-0.7,1.8,2470.32,13.32,0.027,64.4
2020-07-15T09:58:03,42.805,6.029,0.008,-0.004,-0.015,102.0,121.0,102.0,13.3,1505.3,326.1,-0.7,1.8,2470.293,13.32,0.008,116.6
2020-07-15T10:04:03,42.805,6.029,-0.014,0.007,-0.025,103.0,118.0,100.0,13.3,1505.2,326.6,-0.7,1.8,2470.354,13.3,0.015,296.6
2020-07-15T10:07:03,42.805,6.029,-0.002,-0.013,-0.025,104.0,116.0,100.0,13.4,1505.3,325.3,-0.7,1.8,2470.333,13.31,0.013,188.7